TimeMST,TemperatureF,Dew PointF,Humidity,Sea Level PressureIn,VisibilityMPH,Wind Direction,Wind SpeedMPH,Gust SpeedMPH,PrecipitationIn,Events,Conditions,WindDirDegrees,DateUTC
12:15 AM,17.4,7.2,64,30.29,10.0,NW,8.1,-,N/A,,Clear,310,2013-01-21 07:15:00
12:35 AM,15.4,6.3,67,30.29,10.0,WNW,9.2,-,N/A,,Clear,300,2013-01-21 07:35:00
12:55 AM,16.9,7.7,67,30.29,10.0,West,6.9,-,N/A,,Clear,280,2013-01-21 07:55:00
1:15 AM,16.9,7.7,67,30.30,10.0,WNW,6.9,-,N/A,,Clear,300,2013-01-21 08:15:00
1:35 AM,15.1,7.5,72,30.30,10.0,WNW,5.8,-,N/A,,Clear,300,2013-01-21 08:35:00
1:55 AM,16.3,7.5,68,30.30,10.0,NW,3.5,-,N/A,,Clear,310,2013-01-21 08:55:00
2:15 AM,12.6,5.7,74,30.30,10.0,NW,3.5,-,N/A,,Clear,310,2013-01-21 09:15:00
2:35 AM,12.9,6.1,74,30.30,10.0,NW,3.5,-,N/A,,Clear,310,2013-01-21 09:35:00
2:55 AM,9.0,3.9,80,30.30,10.0,NW,6.9,-,N/A,,Clear,310,2013-01-21 09:55:00
3:15 AM,9.9,3.4,75,30.30,10.0,NNW,3.5,-,N/A,,Clear,330,2013-01-21 10:15:00
3:35 AM,11.3,5.7,78,30.30,10.0,NW,6.9,-,N/A,,Clear,310,2013-01-21 10:35:00
3:55 AM,10.4,4.3,76,30.30,10.0,Calm,Calm,-,N/A,,Clear,0,2013-01-21 10:55:00
4:15 AM,9.0,4.3,81,30.30,10.0,Calm,Calm,-,N/A,,Clear,0,2013-01-21 11:15:00
4:35 AM,4.1,-0.0,83,30.30,10.0,NW,4.6,-,N/A,,Clear,320,2013-01-21 11:35:00
4:55 AM,5.9,0.7,79,30.30,10.0,NNW,8.1,-,N/A,,Clear,340,2013-01-21 11:55:00
5:15 AM,5.4,-0.2,78,30.30,10.0,NNW,8.1,-,N/A,,Clear,330,2013-01-21 12:15:00
5:35 AM,4.8,-0.9,77,30.30,10.0,NW,6.9,-,N/A,,Clear,320,2013-01-21 12:35:00
5:55 AM,6.6,0.5,76,30.32,10.0,NW,8.1,-,N/A,,Clear,310,2013-01-21 12:55:00
6:15 AM,7.9,1.9,77,30.32,10.0,NW,9.2,-,N/A,,Clear,320,2013-01-21 13:15:00
6:35 AM,8.2,3.4,81,30.32,10.0,NW,9.2,-,N/A,,Clear,310,2013-01-21 13:35:00
6:55 AM,5.5,1.8,84,30.32,10.0,NW,6.9,-,N/A,,Clear,320,2013-01-21 13:55:00
7:15 AM,7.7,3.2,82,30.33,10.0,NW,9.2,-,N/A,,Clear,310,2013-01-21 14:15:00
7:35 AM,8.2,3.0,79,30.33,10.0,WNW,9.2,-,N/A,,Clear,300,2013-01-21 14:35:00
7:55 AM,10.9,4.6,76,30.33,10.0,WNW,6.9,-,N/A,,Clear,300,2013-01-21 14:55:00
8:15 AM,12.9,5.2,71,30.34,10.0,WNW,8.1,-,N/A,,Clear,300,2013-01-21 15:15:00
8:35 AM,16.3,6.3,65,30.34,10.0,NW,6.9,-,N/A,,Clear,310,2013-01-21 15:35:00
8:55 AM,19.8,7.7,60,30.34,10.0,NW,8.1,-,N/A,,Clear,320,2013-01-21 15:55:00
9:15 AM,22.3,7.7,54,30.35,10.0,NNW,9.2,-,N/A,,Clear,330,2013-01-21 16:15:00
9:35 AM,24.6,8.1,49,30.36,10.0,NW,8.1,-,N/A,,Clear,310,2013-01-21 16:35:00
9:55 AM,27.3,8.2,45,30.36,10.0,NW,8.1,-,N/A,,Clear,320,2013-01-21 16:55:00
10:15 AM,29.5,8.6,42,30.36,10.0,NNW,8.1,-,N/A,,Clear,330,2013-01-21 17:15:00
10:35 AM,32.5,9.3,38,30.36,10.0,North,6.9,-,N/A,,Clear,350,2013-01-21 17:35:00
10:55 AM,36.5,10.2,34,30.35,10.0,NNW,6.9,-,N/A,,Clear,330,2013-01-21 17:55:00
11:15 AM,40.3,9.9,29,30.33,10.0,NNW,5.8,-,N/A,,Clear,340,2013-01-21 18:15:00
11:35 AM,42.8,9.5,26,30.33,10.0,North,6.9,-,N/A,,Clear,360,2013-01-21 18:35:00
11:55 AM,45.0,9.1,23,30.32,10.0,NNW,8.1,-,N/A,,Clear,340,2013-01-21 18:55:00
12:15 PM,47.3,9.7,22,30.30,10.0,North,11.5,-,N/A,,Clear,350,2013-01-21 19:15:00
12:35 PM,49.8,8.1,18,30.29,10.0,NNW,13.8,18.4,N/A,,Clear,340,2013-01-21 19:35:00
12:55 PM,50.2,7.2,18,30.29,10.0,North,13.8,19.6,N/A,,Clear,360,2013-01-21 19:55:00
1:15 PM,51.1,7.3,17,30.28,10.0,North,11.5,-,N/A,,Clear,360,2013-01-21 20:15:00
1:35 PM,52.5,7.3,16,30.26,10.0,NNW,10.4,-,N/A,,Clear,340,2013-01-21 20:35:00
1:55 PM,53.6,7.3,16,30.26,10.0,North,11.5,-,N/A,,Clear,350,2013-01-21 20:55:00
2:15 PM,54.3,8.2,16,30.26,10.0,North,8.1,17.3,N/A,,Clear,350,2013-01-21 21:15:00
2:35 PM,54.7,8.8,16,30.25,10.0,North,10.4,-,N/A,,Clear,350,2013-01-21 21:35:00
2:55 PM,54.7,8.8,16,30.25,10.0,NNW,11.5,18.4,N/A,,Clear,330,2013-01-21 21:55:00
3:15 PM,54.5,9.5,17,30.25,10.0,North,13.8,-,N/A,,Clear,350,2013-01-21 22:15:00
3:35 PM,54.1,11.3,18,30.25,10.0,NNW,12.7,-,N/A,,Clear,340,2013-01-21 22:35:00
3:55 PM,53.6,12.6,20,30.25,10.0,NNW,12.7,-,N/A,,Clear,340,2013-01-21 22:55:00
4:15 PM,52.9,12.9,20,30.25,10.0,North,15.0,-,N/A,,Clear,350,2013-01-21 23:15:00
4:35 PM,51.3,14.0,23,30.25,10.0,North,12.7,-,N/A,,Clear,350,2013-01-21 23:35:00
4:55 PM,49.5,14.0,24,30.26,10.0,North,12.7,-,N/A,,Clear,360,2013-01-21 23:55:00
5:15 PM,46.9,13.1,26,30.26,10.0,North,8.1,-,N/A,,Clear,360,2013-01-22 00:15:00
5:35 PM,43.7,10.6,26,30.26,10.0,North,5.8,-,N/A,,Clear,350,2013-01-22 00:35:00
5:55 PM,38.7,9.3,30,30.26,10.0,NW,8.1,-,N/A,,Clear,310,2013-01-22 00:55:00
6:15 PM,36.9,9.5,32,30.28,10.0,NW,10.4,-,N/A,,Clear,310,2013-01-22 01:15:00
6:35 PM,35.2,9.5,34,30.28,10.0,WNW,9.2,-,N/A,,Clear,300,2013-01-22 01:35:00
6:55 PM,35.8,10.2,35,30.28,10.0,WNW,8.1,-,N/A,,Clear,290,2013-01-22 01:55:00
7:15 PM,33.1,10.6,39,30.29,10.0,WNW,4.6,-,N/A,,Clear,290,2013-01-22 02:15:00
7:35 PM,28.8,9.1,44,30.29,10.0,Calm,Calm,-,N/A,,Clear,0,2013-01-22 02:35:00
7:55 PM,27.9,11.8,51,30.30,10.0,Calm,Calm,-,N/A,,Clear,0,2013-01-22 02:55:00
8:15 PM,28.2,10.8,48,30.30,10.0,Calm,Calm,-,N/A,,Clear,0,2013-01-22 03:15:00
8:35 PM,26.8,10.2,50,30.30,10.0,WNW,4.6,-,N/A,,Clear,290,2013-01-22 03:35:00
8:55 PM,27.0,10.6,50,30.30,10.0,Calm,Calm,-,N/A,,Clear,0,2013-01-22 03:55:00
9:15 PM,24.8,9.9,53,30.30,10.0,Calm,Calm,-,N/A,,Clear,0,2013-01-22 04:15:00
9:35 PM,21.2,8.1,57,30.32,10.0,Calm,Calm,-,N/A,,Clear,0,2013-01-22 04:35:00
9:55 PM,21.2,9.5,61,30.32,10.0,Calm,Calm,-,N/A,,Clear,0,2013-01-22 04:55:00
10:15 PM,18.3,6.8,61,30.32,10.0,Calm,Calm,-,N/A,,Clear,0,2013-01-22 05:15:00
10:35 PM,18.9,7.7,62,30.33,10.0,NW,3.5,-,N/A,,Clear,320,2013-01-22 05:35:00
10:55 PM,19.2,9.3,65,30.32,10.0,NNW,4.6,-,N/A,,Clear,330,2013-01-22 05:55:00
11:15 PM,19.4,9.0,64,30.32,10.0,NW,5.8,-,N/A,,Clear,310,2013-01-22 06:15:00
11:35 PM,17.4,7.5,65,30.32,10.0,NW,6.9,-,N/A,,Clear,320,2013-01-22 06:35:00
11:55 PM,18.3,7.9,64,30.32,10.0,NNW,3.5,-,N/A,,Clear,330,2013-01-22 06:55:00